This is the latest recevied weather packets stored in our database for station/object OE-11053. If no packets are shown the sender has not sent any weather packets the latest 10 day(s).
| Time | Temp. | Humidity | Pressure | Rain* | Wind** | Luminosity | Snow |
|---|---|---|---|---|---|---|---|
| 1787861123 | 25.56° C | 54% | 1012.2 hPa | 0 mm | - | 0 W/m² | - |
| 1787860523 | 25.56° C | 54% | 1012.3 hPa | 0 mm | - | 0 W/m² | - |
| 1787859696 | 25.56° C | 54% | 1012.2 hPa | 0 mm | - | 0 W/m² | - |
| 1787859323 | 25.56° C | 54% | 1012.2 hPa | 0 mm | - | 0 W/m² | - |
| 1787858723 | 25.56° C | 54% | 1012.2 hPa | 0 mm | - | 0 W/m² | - |
| 1787857896 | 25.56° C | 55% | 1012.4 hPa | 0 mm | - | 0 W/m² | - |
| 1787857523 | 25.56° C | 54% | 1012.3 hPa | 0 mm | - | 0 W/m² | - |
| 1787856923 | 25.56° C | 54% | 1012.4 hPa | 0 mm | - | 0 W/m² | - |
| 1787856096 | 25.56° C | 54% | 1012.3 hPa | 0 mm | - | 0 W/m² | - |
| 1787855722 | 26.11° C | 54% | 1012.3 hPa | 0 mm | - | 0 W/m² | - |
| 1787855123 | 26.11° C | 54% | 1012.2 hPa | 0 mm | - | 0 W/m² | - |
| 1787854296 | 26.11° C | 54% | 1012.1 hPa | 0 mm | - | 0 W/m² | - |
| 1787853923 | 26.11° C | 54% | 1011.9 hPa | 0 mm | - | 6 W/m² | - |
| 1787852735 | 26.67° C | 52% | 1011.7 hPa | 0 mm | - | 19 W/m² | - |
| 1787852122 | 27.22° C | 51% | 1011.8 hPa | 0 mm | - | 32 W/m² | - |
| 1787851523 | 27.22° C | 50% | 1011.6 hPa | 0 mm | - | 51 W/m² | - |
| 1787850696 | 27.22° C | 50% | 1011.8 hPa | 0 mm | - | 51 W/m² | - |
| 1787850323 | 27.78° C | 49% | 1011.8 hPa | 0 mm | - | 45 W/m² | - |
| 1787849723 | 27.78° C | 48% | 1011.9 hPa | 0 mm | - | 51 W/m² | - |
| 1787848896 | 27.78° C | 48% | 1011.9 hPa | 0 mm | - | 64 W/m² | - |
| 1787848523 | 28.33° C | 47% | 1011.8 hPa | 0 mm | - | 83 W/m² | - |
| 1787847923 | 28.33° C | 46% | 1011.9 hPa | 0 mm | - | 115 W/m² | - |
| 1787847096 | 28.33° C | 46% | 1011.8 hPa | 0 mm | - | 134 W/m² | - |
| 1787846723 | 28.33° C | 45% | 1011.9 hPa | 0 mm | - | 134 W/m² | - |
| 1787846123 | 28.89° C | 45% | 1011.9 hPa | 0 mm | - | 147 W/m² | - |
* Rain latest hour (hover to see other rain measurements)
** Current wind speed in m/s (hover to see current wind gust speed)